PRAETORIAN SDA_607

基本信息
目录编号:
65571
目录名称:
PRAETORIAN SDA_608
国际标识:
2025-203G
轨道中心:
EARTH
卫星名称:
PRAETORIAN SDA_607
卫星全名:
PRAETORIAN SDA_607
卫星状态:
在轨 (已飞行41 天)
发射日期:
2025-09-10 UTC
国别 :
美国 (US)
星等 :
--
轨道信息
数据来源 国际轨道数据
星历时间: 2025-10-21T03:34:01+0800
13小时前
查看轨道信息
半长轴: 7325.994km
偏心率: 0.0007195
轨道倾角: 81.300°
近地点辐角 120.822°
升交点赤经 232.519°
平近点角 239.364°
近地点: 942.587km
远地点: 953.131km
周期: 104.006分钟
每日圈数: 13.84532
详细信息
使用方式:
暂无
2D轨道图
3D轨道图
轨道高度分析图
轨道倾角分析图
轨道综合分析图
查看轨道综合分析图